www.pogodaiklimat.ru

Погода и климат >> Архив погоды >> Мали >> Bamako


ПОГОДА в Bamako

  • Прогноз погоды в Bamako
  • Монитор погоды в Bamako
  • Климат города

АРХИВ ПОГОДЫ в Bamako

Время (UTC), дата Ветер
(напр.,м/с)
 
Видим.   Явления Облачность Т
(С)
Тd
(С)
f
(%)
Тe
(С)
Тes
(С)
Комфортность P
(гПа)
Po
(гПа)
Тmin
(С)
Tmax
(С)
R
(мм)
R24
(мм)
S
(см)
18 19.04 СЗ 3 10 км 5/3 900 м
[Cu Sc Ac lent Ci sp]
+37.4 +15.5 27 +39 +39 очень
душно
1006.9 966.9 +41.1
21 19.04 ЮЗ 1 10 км 8/0
[Ac lent Ci sp]
+33.0 +16.9 38 +36 +36 очень
душно
1007.3 967.5
00 20.04 ЮЗ 1 10 км 6/0
[Ci sp]
+30.5 +14.5 38 +33 +33 душно 1008.1 968.5
03 20.04 штиль 0 10 км 5/0
[Ci sp]
+30.5 +8.5 25 +30 +30 жарко 1006.8 967.4
06 20.04 СВ 2 10 км 8/0
[Ac lent Ci sp]
+28.6 +4.7 22 +30 +30 жарко 1008.3 968.5 +26.9
09 20.04 СЗ 7 10 км 1/0
[Ci sp]
+32.5 +4.6 17 +30 +32 жарко 1009.8 969.9
12 20.04 С 6 10 км 1/0
[Ci sp]
+37.9 +9.6 18 +36 +44 очень
жарко
1008.3 968.6
15 20.04 С 4 10 км 8/0
[Ac lent Ci sp]
+40.0 +10.5 17 +39 +44 очень
жарко
1005.6 966.2
18 20.04 С 4 10 км 6/0
[Ac lent Ci sp]
+38.5 +10.2 18 +37 +37 очень
жарко
1004.9 965.3 +40.2
21 20.04 С 2 10 км 6/0
[Ac lent Ci sp]
+31.0 +13.7 35 +32 +32 жарко 1006.4 966.6
00 21.04 С 4 10 км 4/0
[Ci sp]
+31.0 +10.6 28 +31 +31 жарко 1007.0 967.5
03 21.04 С 4 10 км 4/0
[Ac lent Ci sp]
+30.2 +9.3 27 +30 +30 жарко 1006.5 967.1
06 21.04 В 2 10 км 4/0
[Ci sp]
+24.9 +10.3 40 +26 +26 жарко 1007.8 967.9 +24.9
09 21.04 З 5 10 км 6/0
[Ci sp]
+31.2 +16.0 40 +34 +38 душно 1009.7 969.8
12 21.04 С 6 10 км 4/0
[Ci sp]
+36.8 +10.0 20 +36 +43 очень
жарко
1007.9 968.3
15 21.04 В 3 10 км 3/0
[Ci sp]
+39.8 +13.3 21 +40 +51 опасность
солнечного
удара
1005.3 966.0
18 21.04 С 2 10 км 6/1 900 м
[Sc Ac lent Ci sp]
+38.5 +15.2 25 +40 +40 очень
душно
1005.1 965.4 +40.0
21 21.04 штиль 0 10 км 6/1 900 м
[Sc Ac lent Ci sp]
+31.0 +15.8 40 +34 +34 душно 1006.9 967.0
00 22.04 Ю 3 10 км 5/0
[Ac lent Ci sp]
+32.6 +17.1 40 +36 +36 очень
душно
1007.3 967.9
03 22.04 З 2 10 км 5/0
[Ac lent Ci sp]
+29.4 +19.2 54 +35 +35 очень
душно
1006.4 967.0
06 22.04 ЮЗ 3 10 км 5/0
[Ac lent Ci sp]
+26.6 +19.0 63 +32 +32 очень
душно
1007.1 967.5 +26.6
09 22.04 Ю 4 10 км 4/0
[Ac lent Ci sp]
+31.7 +21.1 53 +39 +43 очень
душно
1008.4 968.6
12 22.04 Ю 4 10 км ясно +37.0 +19.6 36 +42 +56 опасность
перегрева
1008.0 968.6
15 22.04 СЗ 3 10 км 8/3 900 м
[Sc Ac lent Ci sp]
+40.0 +19.1 30 +44 +50 опасность
перегрева
1005.5 966.2
18 22.04 В 5 10 км 9/3 900 м
[Cb cap Ac lent Ci sp]
+37.7 +18.2 32 +41 +41 опасность
перегрева
1005.1 965.5 +40.5
21 22.04 ЮВ 2 10 км 9/3 900 м
[Sc Ac lent Ci sp]
+33.0 +19.2 44 +38 +38 очень
душно
1007.0 967.4
00 23.04 Ю 2 10 км 6/1 900 м
[Sc Ac lent Ci sp]
+32.0 +17.9 43 +36 +36 очень
душно
1007.7 968.3
03 23.04 З 3 10 км 6/0
[Ac lent Ci sp]
+30.0 +18.5 50 +35 +35 очень
душно
1006.5 967.2
06 23.04 Ю 2 10 км 8/0
[Ac As Ci sp]
+29.3 +18.2 51 +34 +34 очень
душно
1008.9 969.3 +29.2
09 23.04 ЮЗ 5 10 км {гроза} 6/0
[Ac lent Ci sp]
+32.2 +17.4 41 +36 +38 очень
душно
1010.3 970.5
15 23.04 Ю 4 10 км 5/5 900 м
[Sc Ci sp]
+39.0 +13.9 23 +40 +44 очень
душно
1005.5 966.1
18 23.04 Ю 3 10 км 6/5 900 м
[Cb calv Ac lent]
+37.5 +14.8 26 +39 +39 очень
душно
1005.3 965.8 +40.6
21 23.04 С 2 10 км гроза без осадков 6/1 900 м
[Cb cap Ac As]
+32.6 +17.3 40 +36 +36 очень
душно
1007.9 968.2
00 24.04 СЗ 2 10 км 4/3 900 м
[Sc Ac lent Ci sp]
+32.6 +13.4 31 +34 +34 очень
жарко
1007.7 968.2
03 24.04 ЮЗ 3 10 км 4/3 900 м
[Sc Ac lent Ci sp]
+27.3 +15.7 49 +30 +30 душно 1007.1 967.4
06 24.04 ЮЗ 7 10 км 5/1 900 м
[Sc Ac As Ci sp]
+27.5 +18.2 57 +32 +32 очень
душно
1009.3 969.4 +27.4
09 24.04 З 6 10 км 8/1 900 м
[Sc Ac lent Ci sp]
+29.8 +18.2 50 +35 +36 очень
душно
1010.2 970.2
12 24.04 З 4 10 км 8/1 900 м
[Sc Ac lent Ci sp]
+36.4 +15.7 29 +38 +46 очень
душно
1009.4 969.7
15 24.04 З 3 10 км 3/0
[Ci sp]
+39.5 +13.8 22 +40 +51 опасность
солнечного
удара
1006.6 967.1
18 24.04 СВ 1 10 км 3/1 900 м
[Sc Ci sp]
+36.3 +13.4 25 +37 +37 очень
жарко
1005.7 966.1 +40.0
21 24.04 штиль 0 10 км 3/0
[Ac lent Ci sp]
+31.5 +16.0 39 +34 +34 душно 1007.8 967.8
00 25.04 С 2 8000 м пыль 4/0
[Ac lent Ci sp]
+30.1 +16.7 45 +34 +34 очень
душно
1007.4 968.0
03 25.04 С 4 8000 м пыль 3/0
[Ci sp]
+32.3 +13.9 33 +30 +30 жарко 1007.1 967.7
06 25.04 ЮЗ 1 10 км 3/0
[Ac lent Ci sp]
+24.5 +10.4 41 +26 +26 жарко 1008.1 968.2 +24.4
09 25.04 ЮВ 3 10 км 3/0
[Ci sp]
+33.8 +9.0 22 +33 +39 жарко 1010.2 970.3
12 25.04 В 5 10 км 3/0
[Ci sp]
+39.0 +5.2 13 +36 +47 очень
жарко
1009.3 969.6
15 25.04 СВ 6 10 км 3/0
[Ci sp]
+40.5 +6.9 13 +38 +43 очень
жарко
1005.6 966.3
18 25.04 СВ 4 10 км 4/0
[Ac lent Ci sp]
+39.8 +6.0 13 +37 +38 очень
жарко
1005.3 965.5 +41.5
21 25.04 С 1 10 км 3/0
[Ci sp]
+31.0 +11.6 30 +31 +31 жарко 1006.2 966.5
03 26.04 СВ 3 10 км 3/0
[Ci sp]
+31.0 +4.9 19 +29 +29 жарко 1006.1 966.7
06 26.04 СВ 2 10 км 4/0
[Ci sp]
+27.5 +6.9 27 +27 +27 жарко 1008.0 968.3 +27.5
09 26.04 Ю 7 10 км 9/0
[Ci sp]
+29.2 +18.2 52 +34 +36 очень
душно
1011.1 971.0
12 26.04 Ю 6 10 км 8/0
[Ci sp]
+33.9 +16.7 36 +37 +44 очень
душно
1010.7 970.7
15 26.04 Ю 6 10 км 8/0
[Ci sp]
+36.5 +16.7 31 +39 +44 очень
душно
1007.2 967.7

 

Местоположение метеостанции Bamako (Мали): широта 12.53 долгота -7.95 высота над уровнем моря 381 м.

В архиве по умолчанию представлена погода в Bamako за последнюю неделю. Архивные данные за месяц целиком и за предыдущие месяцы, начиная с января 2011 года, Вы можете получить, выбрав интересующий диапазон дат из раскрывающегося списка и нажав кнопку "Ввод!".


*Определитесь, кто Вы:
робот инопланетянин человек

Внимание! Время в таблицах - всемирное. Для получения местного времени необходимо прибавить поправку, которая в Bamako равна 0 ч.

Смотрите также архив погоды в соседних городах и на ближайших метеорологических станциях:

Погода в Bougouni (Мали) (133 км)
Погода в Kita (Мали) (175 км)
Погода в Segou (Мали) (218 км)
Погода в Koutiala (Мали) (270 км)
Погода в Sikasso (Мали) (280 км)
Погода в Nara (Мали) (302 км)
Погода в Odienne (Кот-д'Ивуар) (335 км)
Погода в Nioro Du Sahel (Мали) (336 км)
Погода в San (Мали) (350 км)
Погода в Kenieba (Мали) (358 км)

Пояснения к столбцам:

Ветер - указаны скорость ветра в м/с - средняя за 10 мин, порывы в срок и между сроками (в фигурных скобках) и направление, откуда дует ветер: С - северный, СВ - северо-восточный, В - восточный, ЮВ - юго-восточный, Ю - южный, ЮЗ - юго-западный, З - западный, СЗ - северо-западный.
Видимость - горизонтальная дальность видимости в метрах или километрах. При видимости от 1 до 10 км при отсутствии осадков обычно наблюдается дымка, при ухудшении видимости до 1 км и менее - туман. В сухую погоду видимость может ухудшаться дымом, пылью или мглою.
Явления - указаны атмосферные явления, наблюдавшиеся в срок или в последний час перед сроком; фигурными скобками обозначены явления, наблюдавшиеся между сроками (за 1-3 часа до срока); квадратными скобками обозначены град или гололедные отложения с указанием их диаметра в мм.
Облачность - указаны через наклонную черту общая и нижняя облачность в баллах и высота нижней границы облаков в метрах; квадратными скобками обозначены формы облаков: Ci - перистые, Cs - перисто-слоистые, Cc - перисто-кучевые, Ac - высококучевые, As - высокослоистые, Sc - слоисто-кучевые, Ns - слоисто-дождевые, Cu - кучевые, Cb - кучево-дождевые. Подробнее классификацию облаков см. в Атласе облаков (PDF).
T - Температура воздуха - температура, измеренная на высоте 2 м над землей.
Td - Температура точки росы - температура, при понижении до которой содержащийся в воздухе водяной пар достигнет насыщения.
f - Относительная влажность воздуха - влажноcть воздуха, измеренная на высоте 2 м над землей.
Te - Эффективная температура - температура, которую ощущает одетый по сезону человек в тени. Характеристика душности погоды. При расчете учитывается влияние влажности воздуха и скорости ветра на теплоощущения человека.
Tes - Эффективная температура на солнце - температура, которую ощущает человек, с поправкой на солнечный нагрев. Характеристика знойности погоды. Зависит от высоты солнца над горизонтом, облачности и скорости ветра. Ночью, в пасмурную погоду, а также при ветре 12 м/с и более поправка равна нулю.
P - Атмосферное давление - приведенное к уровню моря атмосферное давление.
Po - Атмосферное давление - измеренное на уровне метеостанции атмосферное давление.
Tmin - Минимальная температура - минимум температуры воздуха на высоте 2 м над землей.
Tmax - Максимальная температура - максимум температуры воздуха на высоте 2 м над землей.
R - Количество осадков - Количество выпавших осадков за период времени, мм. При наведении курсора мыши на число - период времени, за который выпало указанное количество осадков.
R24 - Количество осадков - Количество выпавших осадков за 24 часа, мм.
S - Снежный покров - Высота снежного покрова, см. При наведении курсора мыши на число - состояние снежного покрова и степень покрытия местности в баллах.